EST,Max TemperatureF,Mean TemperatureF,Min TemperatureF,Max Dew PointF,MeanDew PointF,Min DewpointF,Max Humidity, Mean Humidity, Min Humidity, Max Sea Level PressureIn, Mean Sea Level PressureIn, Min Sea Level PressureIn, Max VisibilityMiles, Mean VisibilityMiles, Min VisibilityMiles, Max Wind SpeedMPH, Mean Wind SpeedMPH, Max Gust SpeedMPH,PrecipitationIn, CloudCover, Events, WindDirDegrees
2012-11-1,55,45,35,39,37,36,100,74,47,29.83,29.76,29.72,10,10,10,13,3,20,0.00,3,,241
2012-11-2,55,44,32,37,34,30,100,76,38,29.97,29.87,29.81,10,10,7,10,3,,0.00,3,Rain,253
2012-11-3,53,40,28,37,33,28,100,80,44,30.14,30.05,29.98,10,9,2,13,2,22,0.00,1,,297
2012-11-4,50,42,33,41,38,34,100,88,62,30.13,30.07,30.01,10,9,1,6,1,,0.03,5,Rain,37
2012-11-5,50,40,30,36,32,28,100,80,43,30.16,30.10,30.05,10,10,5,13,4,17,0.00,1,,324
2012-11-6,44,37,30,34,32,30,100,80,61,30.19,30.09,29.94,10,10,7,12,5,17,0.00,4,Rain,330
2012-11-7,42,38,35,37,35,32,100,84,70,29.94,29.90,29.86,10,10,7,13,7,17,0.02,7,Rain,299
2012-11-8,57,44,32,34,28,18,87,65,23,30.11,30.00,29.94,10,10,10,12,4,17,0.00,1,,279
2012-11-9,59,42,26,37,32,27,100,77,36,30.27,30.21,30.10,10,10,3,7,1,,0.00,0,,274
2012-11-10,69,50,30,41,37,30,100,67,28,30.41,30.35,30.30,10,10,5,9,2,,0.00,0,,149
2012-11-11,71,52,33,46,41,34,100,78,35,30.51,30.46,30.40,10,8,0,8,2,,0.00,0,Fog,139
2012-11-12,73,55,37,61,52,37,100,82,53,30.46,30.34,30.21,10,7,0,13,3,18,0.00,2,Fog,131
2012-11-13,62,52,39,61,47,32,100,95,70,30.45,30.33,30.17,10,9,4,15,6,21,0.10,7,Rain,347
2012-11-14,50,41,32,34,31,28,93,76,50,30.52,30.46,30.42,10,10,10,15,7,20,0.00,0,,337
2012-11-15,50,42,33,43,38,32,100,84,71,30.41,30.32,30.28,10,10,10,9,6,,0.02,7,Rain,328
2012-11-16,51,42,32,43,36,32,100,82,50,30.42,30.33,30.28,10,10,3,12,4,16,0.00,2,Rain,330
2012-11-17,53,42,32,41,35,32,100,75,47,30.53,30.49,30.41,10,10,10,12,6,18,0.00,2,,337
2012-11-18,57,50,42,46,43,41,100,80,63,30.50,30.46,30.39,10,10,10,15,10,21,0.00,7,,351
2012-11-19,51,48,46,45,43,41,87,80,76,30.39,30.30,30.20,10,10,10,14,10,22,0.00,8,,333
2012-11-20,55,48,41,45,43,41,100,80,63,30.19,30.13,30.09,10,10,7,8,5,,0.00,6,,328
2012-11-21,55,44,33,41,35,30,100,79,38,30.21,30.16,30.12,10,8,2,14,4,,0.00,0,,323
2012-11-22,59,44,28,36,32,28,100,74,34,30.26,30.20,30.17,10,10,10,12,5,16,0.00,0,,322
2012-11-23,64,45,26,41,33,27,100,69,32,30.18,30.00,29.85,10,10,7,9,2,,0.00,1,,194
2012-11-24,50,38,26,36,25,19,80,56,37,30.13,29.99,29.85,10,10,10,13,6,18,0.00,0,,285
2012-11-25,48,34,21,25,21,19,93,60,32,30.17,30.10,30.02,10,10,10,12,3,16,0.00,0,,214
2012-11-26,60,43,26,34,29,25,93,64,27,30.22,30.16,30.07,10,10,10,8,2,,0.00,1,,221
2012-11-27,50,41,32,43,37,32,100,86,58,30.26,30.19,30.13,10,9,3,12,3,17,0.09,6,Rain,308
2012-11-28,48,37,26,34,31,27,100,88,54,30.40,30.32,30.25,10,6,0,10,2,,0.00,2,Fog,305
2012-11-29,51,37,23,34,28,23,100,84,43,30.49,30.43,30.39,10,8,1,8,1,,0.00,0,,154
2012-11-30,59,42,26,37,32,27,100,78,39,30.41,30.36,30.31,10,9,5,8,1,,0.00,0,,178